Time,TemperatureF,DewpointF,PressureIn,WindDirection,WindDirectionDegrees,WindSpeedMPH,WindSpeedGustMPH,Humidity,HourlyPrecipIn,Conditions,Clouds,dailyrainin,SoftwareType,DateUTC
2013-11-14 06:25:00,36.0,30.4,29.83,East,90,0.0,0.0,80,0.00,,,0.00,WUHU216HW,2013-11-14 13:25:00,
2013-11-14 06:26:00,35.8,30.2,29.83,East,90,0.0,0.0,80,0.00,,,0.00,WUHU216HW,2013-11-14 13:26:00,
2013-11-14 06:31:00,35.8,30.2,29.83,ENE,68,0.0,0.0,80,0.00,,,0.00,WUHU216HW,2013-11-14 13:31:00,
2013-11-14 06:36:00,35.8,30.2,29.84,North,0,0.0,0.0,80,0.00,,,0.00,WUHU216HW,2013-11-14 13:36:00,
2013-11-14 06:41:00,35.8,30.2,29.83,NNW,338,0.0,0.0,80,0.00,,,0.00,WUHU216HW,2013-11-14 13:41:00,
2013-11-14 06:46:00,35.6,30.1,29.84,NNW,338,0.0,0.0,80,0.00,,,0.00,WUHU216HW,2013-11-14 13:46:00,
2013-11-14 06:51:00,35.6,30.1,29.84,NNW,338,0.0,0.0,80,0.00,,,0.00,WUHU216HW,2013-11-14 13:51:00,
2013-11-14 06:56:00,35.6,30.1,29.84,NNW,338,0.0,0.0,80,0.00,,,0.00,WUHU216HW,2013-11-14 13:56:00,
2013-11-14 07:01:00,35.8,30.2,29.84,NNW,338,0.0,0.0,80,0.00,,,0.00,WUHU216HW,2013-11-14 14:01:00,
2013-11-14 07:06:00,36.0,31.3,29.84,East,90,0.0,0.0,83,0.00,,,0.00,WUHU216HW,2013-11-14 14:06:00,
2013-11-14 07:11:00,36.2,31.1,29.84,East,90,0.0,0.0,82,0.00,,,0.00,WUHU216HW,2013-11-14 14:11:00,
2013-11-14 07:16:00,36.4,31.3,29.84,East,90,0.0,0.0,82,0.00,,,0.00,WUHU216HW,2013-11-14 14:16:00,
2013-11-14 07:21:00,36.7,31.7,29.84,ESE,113,0.0,0.0,82,0.00,,,0.00,WUHU216HW,2013-11-14 14:21:00,
2013-11-14 07:26:00,37.1,31.8,29.84,ESE,113,0.0,0.0,81,0.00,,,0.00,WUHU216HW,2013-11-14 14:26:00,
2013-11-14 07:31:00,37.6,32.3,29.84,ESE,113,0.0,0.0,81,0.00,,,0.00,WUHU216HW,2013-11-14 14:31:00,
2013-11-14 07:36:00,38.2,32.9,29.84,SSW,203,0.0,0.0,81,0.00,,,0.00,WUHU216HW,2013-11-14 14:36:00,
2013-11-14 07:41:00,38.7,33.4,29.84,SW,225,1.0,1.0,81,0.00,,,0.00,WUHU216HW,2013-11-14 14:41:00,
2013-11-14 07:46:00,39.2,33.7,29.84,South,180,0.0,1.0,80,0.00,,,0.00,WUHU216HW,2013-11-14 14:46:00,
2013-11-14 07:47:00,39.2,33.7,29.84,South,180,0.0,1.0,80,0.00,,,0.00,WUHU216HW,2013-11-14 14:47:00,
2013-11-14 07:52:00,39.8,34.1,29.84,SSW,203,0.0,2.0,80,0.00,,,0.00,WUHU216HW,2013-11-14 14:52:00,
2013-11-14 07:57:00,40.1,34.7,29.84,ESE,113,0.0,2.0,81,0.00,,,0.00,WUHU216HW,2013-11-14 14:57:00,
2013-11-14 08:02:00,40.7,35.3,29.84,SSE,158,0.0,1.0,81,0.00,,,0.00,WUHU216HW,2013-11-14 15:02:00,
2013-11-14 08:07:00,41.0,35.6,29.84,SW,225,1.0,1.0,81,0.00,,,0.00,WUHU216HW,2013-11-14 15:07:00,
2013-11-14 08:12:00,41.4,35.6,29.84,SSW,203,0.0,1.0,80,0.00,,,0.00,WUHU216HW,2013-11-14 15:12:00,
2013-11-14 08:17:00,41.8,36.0,29.84,SW,225,0.0,1.0,80,0.00,,,0.00,WUHU216HW,2013-11-14 15:17:00,
2013-11-14 08:22:00,42.1,36.0,29.84,SW,225,1.0,1.0,79,0.00,,,0.00,WUHU216HW,2013-11-14 15:22:00,
2013-11-14 08:27:00,42.7,36.5,29.84,SSW,203,1.0,2.0,79,0.00,,,0.00,WUHU216HW,2013-11-14 15:27:00,
2013-11-14 08:32:00,43.0,36.9,29.84,West,270,1.0,2.0,79,0.00,,,0.00,WUHU216HW,2013-11-14 15:32:00,
2013-11-14 08:37:00,43.6,37.2,29.84,WSW,248,1.0,3.0,78,0.00,,,0.00,WUHU216HW,2013-11-14 15:37:00,
2013-11-14 08:42:00,43.9,37.5,29.84,WNW,293,4.0,4.0,78,0.00,,,0.00,WUHU216HW,2013-11-14 15:42:00,
2013-11-14 08:47:00,44.6,37.5,29.84,WNW,293,2.0,4.0,76,0.00,,,0.00,WUHU216HW,2013-11-14 15:47:00,
2013-11-14 08:52:00,45.5,38.4,29.85,NNW,338,2.0,4.0,76,0.00,,,0.00,WUHU216HW,2013-11-14 15:52:00,
2013-11-14 08:57:00,46.3,38.4,29.85,NW,315,4.0,4.0,74,0.00,,,0.00,WUHU216HW,2013-11-14 15:57:00,
2013-11-14 09:02:00,46.6,38.1,29.85,NW,315,1.0,4.0,72,0.00,,,0.00,WUHU216HW,2013-11-14 16:02:00,
2013-11-14 09:07:00,47.2,38.6,29.85,North,0,2.0,4.0,72,0.00,,,0.00,WUHU216HW,2013-11-14 16:07:00,
2013-11-14 09:12:00,47.7,38.7,29.85,West,270,2.0,4.0,71,0.00,,,0.00,WUHU216HW,2013-11-14 16:12:00,
2013-11-14 09:17:00,48.2,39.3,29.85,NNW,338,1.0,3.0,71,0.00,,,0.00,WUHU216HW,2013-11-14 16:17:00,
2013-11-14 09:22:00,48.8,39.4,29.85,NNW,338,3.0,3.0,70,0.00,,,0.00,WUHU216HW,2013-11-14 16:22:00,
2013-11-14 09:27:00,49.5,40.1,29.85,WSW,248,0.0,4.0,70,0.00,,,0.00,WUHU216HW,2013-11-14 16:27:00,
2013-11-14 09:32:00,50.6,40.4,29.85,WSW,248,2.0,4.0,68,0.00,,,0.00,WUHU216HW,2013-11-14 16:32:00,
2013-11-14 09:37:00,51.5,40.9,29.84,NNW,338,1.0,3.0,67,0.00,,,0.00,WUHU216HW,2013-11-14 16:37:00,
2013-11-14 09:42:00,50.6,39.6,29.84,SW,225,2.0,4.0,66,0.00,,,0.00,WUHU216HW,2013-11-14 16:42:00,
2013-11-14 09:47:00,50.6,40.1,29.84,WNW,293,3.0,4.0,67,0.00,,,0.00,WUHU216HW,2013-11-14 16:47:00,
2013-11-14 09:52:00,50.8,39.8,29.84,SW,225,2.0,3.0,66,0.00,,,0.00,WUHU216HW,2013-11-14 16:52:00,
2013-11-14 09:57:00,51.3,40.7,29.84,SSW,203,2.0,3.0,67,0.00,,,0.00,WUHU216HW,2013-11-14 16:57:00,
2013-11-14 10:02:00,52.0,41.4,29.84,NW,315,1.0,3.0,67,0.00,,,0.00,WUHU216HW,2013-11-14 17:02:00,
2013-11-14 10:07:00,52.7,41.3,29.84,West,270,3.0,3.0,65,0.00,,,0.00,WUHU216HW,2013-11-14 17:07:00,
2013-11-14 10:12:00,53.3,41.0,29.84,SSW,203,4.0,4.0,63,0.00,,,0.00,WUHU216HW,2013-11-14 17:12:00,
2013-11-14 10:17:00,53.5,41.6,29.84,North,0,0.0,4.0,64,0.00,,,0.00,WUHU216HW,2013-11-14 17:17:00,
2013-11-14 10:22:00,54.0,41.2,29.84,SW,225,1.0,4.0,62,0.00,,,0.00,WUHU216HW,2013-11-14 17:22:00,
2013-11-14 10:27:00,54.4,41.6,29.84,SW,225,4.0,4.0,62,0.00,,,0.00,WUHU216HW,2013-11-14 17:27:00,
2013-11-14 10:32:00,54.7,42.0,29.84,SW,225,2.0,5.0,62,0.00,,,0.00,WUHU216HW,2013-11-14 17:32:00,
2013-11-14 10:37:00,55.1,41.9,29.84,SW,225,2.0,5.0,61,0.00,,,0.00,WUHU216HW,2013-11-14 17:37:00,
2013-11-14 10:42:00,55.6,42.4,29.83,ESE,113,2.0,3.0,61,0.00,,,0.00,WUHU216HW,2013-11-14 17:42:00,
2013-11-14 10:47:00,55.6,41.5,29.83,SSE,158,3.0,3.0,59,0.00,,,0.00,WUHU216HW,2013-11-14 17:47:00,
2013-11-14 10:52:00,55.1,40.5,29.83,East,90,2.0,4.0,58,0.00,,,0.00,WUHU216HW,2013-11-14 17:52:00,
2013-11-14 10:57:00,55.4,41.3,29.82,SSE,158,3.0,5.0,59,0.00,,,0.00,WUHU216HW,2013-11-14 17:57:00,
2013-11-14 11:02:00,56.3,41.8,29.82,West,270,2.0,5.0,58,0.00,,,0.00,WUHU216HW,2013-11-14 18:02:00,
2013-11-14 11:07:00,56.9,41.8,29.82,WSW,248,0.0,5.0,57,0.00,,,0.00,WUHU216HW,2013-11-14 18:07:00,
2013-11-14 11:12:00,57.2,40.8,29.81,East,90,3.0,5.0,54,0.00,,,0.00,WUHU216HW,2013-11-14 18:12:00,
2013-11-14 11:17:00,56.7,40.2,29.81,NNE,23,1.0,5.0,54,0.00,,,0.00,WUHU216HW,2013-11-14 18:17:00,
2013-11-14 11:22:00,56.3,39.9,29.81,WNW,293,1.0,5.0,54,0.00,,,0.00,WUHU216HW,2013-11-14 18:22:00,
2013-11-14 11:27:00,57.2,39.8,29.81,WSW,248,1.0,4.0,52,0.00,,,0.00,WUHU216HW,2013-11-14 18:27:00,
2013-11-14 11:32:00,58.3,41.2,29.80,WSW,248,1.0,4.0,53,0.00,,,0.00,WUHU216HW,2013-11-14 18:32:00,
2013-11-14 11:37:00,59.2,40.7,29.80,WSW,248,2.0,6.0,50,0.00,,,0.00,WUHU216HW,2013-11-14 18:37:00,
2013-11-14 11:42:00,59.4,40.2,29.80,NNW,338,2.0,6.0,49,0.00,,,0.00,WUHU216HW,2013-11-14 18:42:00,
2013-11-14 11:47:00,59.8,39.4,29.80,North,0,3.0,4.0,47,0.00,,,0.00,WUHU216HW,2013-11-14 18:47:00,
2013-11-14 11:52:00,59.4,38.5,29.80,NE,45,5.0,5.0,46,0.00,,,0.00,WUHU216HW,2013-11-14 18:52:00,
2013-11-14 11:57:00,58.3,37.5,29.79,North,0,3.0,5.0,46,0.00,,,0.00,WUHU216HW,2013-11-14 18:57:00,
2013-11-14 12:02:00,58.0,37.3,29.79,West,270,2.0,4.0,46,0.00,,,0.00,WUHU216HW,2013-11-14 19:02:00,
2013-11-14 12:07:00,58.5,38.9,29.79,NNW,338,3.0,6.0,48,0.00,,,0.00,WUHU216HW,2013-11-14 19:07:00,
2013-11-14 12:12:00,58.3,37.5,29.79,NE,45,3.0,6.0,46,0.00,,,0.00,WUHU216HW,2013-11-14 19:12:00,
2013-11-14 12:17:00,57.4,36.7,29.78,NNW,338,4.0,5.0,46,0.00,,,0.00,WUHU216HW,2013-11-14 19:17:00,
2013-11-14 12:22:00,57.6,37.4,29.78,West,270,3.0,5.0,47,0.00,,,0.00,WUHU216HW,2013-11-14 19:22:00,
2013-11-14 12:27:00,57.6,37.4,29.78,NW,315,2.0,5.0,47,0.00,,,0.00,WUHU216HW,2013-11-14 19:27:00,
2013-11-14 12:32:00,58.0,37.8,29.78,ENE,68,1.0,3.0,47,0.00,,,0.00,WUHU216HW,2013-11-14 19:32:00,
2013-11-14 12:37:00,58.0,38.3,29.78,SW,225,1.0,3.0,48,0.00,,,0.00,WUHU216HW,2013-11-14 19:37:00,
2013-11-14 12:42:00,58.5,38.9,29.78,SSE,158,1.0,6.0,48,0.00,,,0.00,WUHU216HW,2013-11-14 19:42:00,
2013-11-14 12:47:00,59.4,38.5,29.77,SW,225,3.0,6.0,46,0.00,,,0.00,WUHU216HW,2013-11-14 19:47:00,
2013-11-14 12:52:00,60.1,39.8,29.77,SW,225,2.0,6.0,47,0.00,,,0.00,WUHU216HW,2013-11-14 19:52:00,
2013-11-14 12:57:00,60.5,38.3,29.77,WSW,248,4.0,6.0,44,0.00,,,0.00,WUHU216HW,2013-11-14 19:57:00,
2013-11-14 13:02:00,60.7,39.1,29.76,WSW,248,5.0,6.0,45,0.00,,,0.00,WUHU216HW,2013-11-14 20:02:00,
2013-11-14 13:07:00,60.8,39.2,29.76,WSW,248,3.0,5.0,45,0.00,,,0.00,WUHU216HW,2013-11-14 20:07:00,
2013-11-14 13:12:00,61.0,39.4,29.76,NNW,338,2.0,5.0,45,0.00,,,0.00,WUHU216HW,2013-11-14 20:12:00,
2013-11-14 13:17:00,61.0,39.4,29.76,SW,225,1.0,4.0,45,0.00,,,0.00,WUHU216HW,2013-11-14 20:17:00,
2013-11-14 13:22:00,61.0,39.4,29.76,West,270,2.0,4.0,45,0.00,,,0.00,WUHU216HW,2013-11-14 20:22:00,
2013-11-14 13:27:00,61.2,38.4,29.76,NW,315,2.0,5.0,43,0.00,,,0.00,WUHU216HW,2013-11-14 20:27:00,
2013-11-14 13:32:00,61.0,38.3,29.76,SSE,158,4.0,5.0,43,0.00,,,0.00,WUHU216HW,2013-11-14 20:32:00,
2013-11-14 13:37:00,60.8,38.1,29.76,SE,135,2.0,4.0,43,0.00,,,0.00,WUHU216HW,2013-11-14 20:37:00,
2013-11-14 13:41:00,60.8,38.1,29.75,South,180,2.0,4.0,43,0.00,,,0.00,WUHU216HW,2013-11-14 20:41:00,
2013-11-14 13:46:00,60.8,38.7,29.76,SW,225,4.0,5.0,44,0.00,,,0.00,WUHU216HW,2013-11-14 20:46:00,
2013-11-14 13:51:00,61.4,38.6,29.76,SW,225,2.0,5.0,43,0.00,,,0.00,WUHU216HW,2013-11-14 20:51:00,
2013-11-14 13:57:00,61.6,37.6,29.75,SW,225,0.0,6.0,41,0.00,,,0.00,WUHU216HW,2013-11-14 20:57:00,
2013-11-14 14:01:00,61.2,37.8,29.75,SW,225,5.0,6.0,42,0.00,,,0.00,WUHU216HW,2013-11-14 21:01:00,
2013-11-14 14:07:00,61.4,38.0,29.75,SE,135,1.0,5.0,42,0.00,,,0.00,WUHU216HW,2013-11-14 21:07:00,
2013-11-14 14:12:00,61.2,37.8,29.75,SW,225,3.0,5.0,42,0.00,,,0.00,WUHU216HW,2013-11-14 21:12:00,
2013-11-14 14:17:00,61.0,37.7,29.75,SSE,158,3.0,3.0,42,0.00,,,0.00,WUHU216HW,2013-11-14 21:17:00,
2013-11-14 14:21:00,61.0,37.7,29.75,South,180,2.0,5.0,42,0.00,,,0.00,WUHU216HW,2013-11-14 21:21:00,
2013-11-14 14:26:00,61.0,37.7,29.75,ENE,68,2.0,5.0,42,0.00,,,0.00,WUHU216HW,2013-11-14 21:26:00,
2013-11-14 14:31:00,61.2,37.3,29.74,WSW,248,2.0,4.0,41,0.00,,,0.00,WUHU216HW,2013-11-14 21:31:00,
2013-11-14 14:36:00,61.2,37.3,29.74,SSW,203,2.0,4.0,41,0.00,,,0.00,WUHU216HW,2013-11-14 21:36:00,
2013-11-14 14:41:00,61.7,36.5,29.74,SW,225,2.0,4.0,39,0.00,,,0.00,WUHU216HW,2013-11-14 21:41:00,
2013-11-14 14:46:00,61.9,37.9,29.74,NW,315,2.0,5.0,41,0.00,,,0.00,WUHU216HW,2013-11-14 21:46:00,
2013-11-14 14:51:00,61.6,36.3,29.74,NE,45,2.0,5.0,39,0.00,,,0.00,WUHU216HW,2013-11-14 21:51:00,
2013-11-14 14:56:00,61.2,36.0,29.73,NNE,23,1.0,5.0,39,0.00,,,0.00,WUHU216HW,2013-11-14 21:56:00,
2013-11-14 15:01:00,61.2,36.7,29.73,East,90,2.0,4.0,40,0.00,,,0.00,WUHU216HW,2013-11-14 22:01:00,
2013-11-14 15:06:00,61.4,36.8,29.73,SSW,203,2.0,4.0,40,0.00,,,0.00,WUHU216HW,2013-11-14 22:06:00,
2013-11-14 15:11:00,61.6,37.0,29.73,South,180,2.0,4.0,40,0.00,,,0.00,WUHU216HW,2013-11-14 22:11:00,
2013-11-14 15:16:00,61.9,36.6,29.73,WNW,293,1.0,4.0,39,0.00,,,0.00,WUHU216HW,2013-11-14 22:16:00,
2013-11-14 15:21:00,61.7,36.5,29.73,NE,45,0.0,4.0,39,0.00,,,0.00,WUHU216HW,2013-11-14 22:21:00,
2013-11-14 15:26:00,61.6,36.3,29.73,SW,225,0.0,2.0,39,0.00,,,0.00,WUHU216HW,2013-11-14 22:26:00,
2013-11-14 15:31:00,61.6,35.6,29.73,SSW,203,1.0,6.0,38,0.00,,,0.00,WUHU216HW,2013-11-14 22:31:00,
2013-11-14 15:36:00,61.6,34.8,29.73,SSW,203,3.0,6.0,37,0.00,,,0.00,WUHU216HW,2013-11-14 22:36:00,
2013-11-14 15:41:00,61.4,35.4,29.73,WSW,248,5.0,5.0,38,0.00,,,0.00,WUHU216HW,2013-11-14 22:41:00,
2013-11-14 15:46:00,61.2,35.3,29.73,NNW,338,2.0,5.0,38,0.00,,,0.00,WUHU216HW,2013-11-14 22:46:00,
2013-11-14 15:51:00,60.8,34.2,29.73,SW,225,5.0,5.0,37,0.00,,,0.00,WUHU216HW,2013-11-14 22:51:00,
2013-11-14 15:56:00,60.7,34.7,29.73,WSW,248,4.0,5.0,38,0.00,,,0.00,WUHU216HW,2013-11-14 22:56:00,
2013-11-14 16:01:00,60.5,35.3,29.73,South,180,0.0,5.0,39,0.00,,,0.00,WUHU216HW,2013-11-14 23:01:00,
2013-11-14 16:06:00,60.1,35.0,29.73,NNE,23,1.0,4.0,39,0.00,,,0.00,WUHU216HW,2013-11-14 23:06:00,
2013-11-14 16:11:00,59.8,34.7,29.73,NE,45,0.0,2.0,39,0.00,,,0.00,WUHU216HW,2013-11-14 23:11:00,
2013-11-14 16:16:00,59.6,35.2,29.72,ESE,113,1.0,2.0,40,0.00,,,0.00,WUHU216HW,2013-11-14 23:16:00,
2013-11-14 16:21:00,59.4,35.1,29.72,SE,135,0.0,2.0,40,0.00,,,0.00,WUHU216HW,2013-11-14 23:21:00,
2013-11-14 16:26:00,59.2,34.9,29.72,SW,225,0.0,2.0,40,0.00,,,0.00,WUHU216HW,2013-11-14 23:26:00,
2013-11-14 16:31:00,59.0,35.3,29.72,SE,135,0.0,0.0,41,0.00,,,0.00,WUHU216HW,2013-11-14 23:31:00,
2013-11-14 16:36:00,58.7,35.0,29.72,ESE,113,0.0,1.0,41,0.00,,,0.00,WUHU216HW,2013-11-14 23:36:00,
2013-11-14 16:41:00,58.3,34.7,29.71,ESE,113,0.0,2.0,41,0.00,,,0.00,WUHU216HW,2013-11-14 23:41:00,
2013-11-14 16:46:00,58.1,34.5,29.71,SE,135,0.0,3.0,41,0.00,,,0.00,WUHU216HW,2013-11-14 23:46:00,
2013-11-14 16:51:00,58.0,34.9,29.71,SE,135,0.0,3.0,42,0.00,,,0.00,WUHU216HW,2013-11-14 23:51:00,
2013-11-14 16:56:00,57.6,35.2,29.72,SSE,158,0.0,1.0,43,0.00,,,0.00,WUHU216HW,2013-11-14 23:56:00,
2013-11-14 17:01:00,57.2,34.8,29.71,SSE,158,0.0,0.0,43,0.00,,,0.00,WUHU216HW,2013-11-15 00:01:00,
2013-11-14 17:06:00,56.9,34.5,29.71,SE,135,0.0,0.0,43,0.00,,,0.00,WUHU216HW,2013-11-15 00:06:00,
2013-11-14 17:11:00,56.5,34.7,29.71,ESE,113,0.0,0.0,44,0.00,,,0.00,WUHU216HW,2013-11-15 00:11:00,
2013-11-14 17:16:00,56.2,34.4,29.71,ESE,113,0.0,0.0,44,0.00,,,0.00,WUHU216HW,2013-11-15 00:16:00,
2013-11-14 17:21:00,55.8,34.7,29.71,ESE,113,0.0,0.0,45,0.00,,,0.00,WUHU216HW,2013-11-15 00:21:00,
2013-11-14 17:26:00,55.3,34.1,29.72,ESE,113,0.0,0.0,45,0.00,,,0.00,WUHU216HW,2013-11-15 00:26:00,
2013-11-14 17:31:00,54.9,33.9,29.72,ENE,68,0.0,0.0,45,0.00,,,0.00,WUHU216HW,2013-11-15 00:31:00,
2013-11-14 17:36:00,54.4,33.8,29.72,NE,45,0.0,1.0,46,0.00,,,0.00,WUHU216HW,2013-11-15 00:36:00,
2013-11-14 17:41:00,54.2,33.8,29.72,ENE,68,0.0,1.0,46,0.00,,,0.00,WUHU216HW,2013-11-15 00:41:00,
2013-11-14 17:46:00,53.6,33.2,29.72,ENE,68,0.0,0.0,46,0.00,,,0.00,WUHU216HW,2013-11-15 00:46:00,
2013-11-14 17:51:00,53.5,33.0,29.72,ENE,68,0.0,0.0,46,0.00,,,0.00,WUHU216HW,2013-11-15 00:51:00,
2013-11-14 17:56:00,52.9,33.1,29.72,ENE,68,0.0,0.0,47,0.00,,,0.00,WUHU216HW,2013-11-15 00:56:00,
2013-11-14 18:01:00,52.6,33.4,29.73,ENE,68,0.0,0.0,48,0.00,,,0.00,WUHU216HW,2013-11-15 01:01:00,
2013-11-14 18:06:00,52.2,33.0,29.73,ENE,68,0.0,0.0,48,0.00,,,0.00,WUHU216HW,2013-11-15 01:06:00,
2013-11-14 18:11:00,52.2,33.0,29.73,North,0,0.0,0.0,48,0.00,,,0.00,WUHU216HW,2013-11-15 01:11:00,
2013-11-14 18:16:00,52.0,33.5,29.73,NNW,338,0.0,1.0,49,0.00,,,0.00,WUHU216HW,2013-11-15 01:16:00,
2013-11-14 18:21:00,51.8,33.8,29.73,North,0,0.0,1.0,50,0.00,,,0.00,WUHU216HW,2013-11-15 01:21:00,
2013-11-14 18:26:00,51.7,33.7,29.73,East,90,0.0,0.0,50,0.00,,,0.00,WUHU216HW,2013-11-15 01:26:00,
2013-11-14 18:31:00,51.3,33.4,29.73,ESE,113,0.0,1.0,50,0.00,,,0.00,WUHU216HW,2013-11-15 01:31:00,
2013-11-14 18:36:00,50.9,33.5,29.73,East,90,0.0,1.0,51,0.00,,,0.00,WUHU216HW,2013-11-15 01:36:00,
2013-11-14 18:41:00,50.4,33.5,29.74,East,90,1.0,1.0,52,0.00,,,0.00,WUHU216HW,2013-11-15 01:41:00,
2013-11-14 18:46:00,50.2,33.3,29.74,ESE,113,0.0,1.0,52,0.00,,,0.00,WUHU216HW,2013-11-15 01:46:00,
2013-11-14 18:51:00,49.9,32.9,29.74,SE,135,0.0,1.0,52,0.00,,,0.00,WUHU216HW,2013-11-15 01:51:00,
2013-11-14 18:56:00,49.5,33.0,29.74,SE,135,0.0,1.0,53,0.00,,,0.00,WUHU216HW,2013-11-15 01:56:00,
2013-11-14 19:01:00,49.3,32.9,29.74,ESE,113,0.0,1.0,53,0.00,,,0.00,WUHU216HW,2013-11-15 02:01:00,
2013-11-14 19:06:00,49.0,32.5,29.74,ENE,68,0.0,2.0,53,0.00,,,0.00,WUHU216HW,2013-11-15 02:06:00,
2013-11-14 19:11:00,48.8,32.9,29.73,ESE,113,1.0,2.0,54,0.00,,,0.00,WUHU216HW,2013-11-15 02:11:00,
2013-11-14 19:16:00,48.6,32.7,29.73,East,90,1.0,2.0,54,0.00,,,0.00,WUHU216HW,2013-11-15 02:16:00,
2013-11-14 19:21:00,48.6,32.7,29.73,ESE,113,0.0,2.0,54,0.00,,,0.00,WUHU216HW,2013-11-15 02:21:00,
2013-11-14 19:26:00,48.4,32.5,29.73,ESE,113,1.0,2.0,54,0.00,,,0.00,WUHU216HW,2013-11-15 02:26:00,
2013-11-14 19:31:00,48.2,32.3,29.73,East,90,1.0,1.0,54,0.00,,,0.00,WUHU216HW,2013-11-15 02:31:00,
2013-11-14 19:36:00,48.1,32.1,29.73,ESE,113,0.0,1.0,54,0.00,,,0.00,WUHU216HW,2013-11-15 02:36:00,
2013-11-14 19:42:00,47.7,31.8,29.73,East,90,1.0,2.0,54,0.00,,,0.00,WUHU216HW,2013-11-15 02:42:00,
2013-11-14 19:47:00,47.5,31.6,29.73,ESE,113,0.0,2.0,54,0.00,,,0.00,WUHU216HW,2013-11-15 02:47:00,
2013-11-14 19:52:00,47.3,31.9,29.73,East,90,0.0,1.0,55,0.00,,,0.00,WUHU216HW,2013-11-15 02:52:00,
2013-11-14 19:57:00,47.2,31.3,29.74,East,90,0.0,0.0,54,0.00,,,0.00,WUHU216HW,2013-11-15 02:57:00,
2013-11-14 20:02:00,47.0,31.6,29.74,NE,45,1.0,1.0,55,0.00,,,0.00,WUHU216HW,2013-11-15 03:02:00,
2013-11-14 20:07:00,46.8,31.4,29.74,NNE,23,0.0,1.0,55,0.00,,,0.00,WUHU216HW,2013-11-15 03:07:00,
2013-11-14 20:12:00,46.4,31.5,29.73,NE,45,0.0,0.0,56,0.00,,,0.00,WUHU216HW,2013-11-15 03:12:00,
2013-11-14 20:17:00,45.9,31.1,29.73,NE,45,0.0,0.0,56,0.00,,,0.00,WUHU216HW,2013-11-15 03:17:00,
2013-11-14 20:21:00,45.7,31.3,29.74,NE,45,0.0,0.0,57,0.00,,,0.00,WUHU216HW,2013-11-15 03:21:00,
2013-11-14 20:26:00,45.5,31.1,29.74,East,90,0.0,1.0,57,0.00,,,0.00,WUHU216HW,2013-11-15 03:26:00,
2013-11-14 20:32:00,45.4,31.0,29.74,ESE,113,0.0,1.0,57,0.00,,,0.00,WUHU216HW,2013-11-15 03:32:00,
2013-11-14 20:37:00,45.2,30.8,29.74,ESE,113,0.0,1.0,57,0.00,,,0.00,WUHU216HW,2013-11-15 03:37:00,
2013-11-14 20:42:00,44.8,30.5,29.74,SE,135,0.0,0.0,57,0.00,,,0.00,WUHU216HW,2013-11-15 03:42:00,
2013-11-14 20:47:00,44.6,30.3,29.74,ESE,113,0.0,0.0,57,0.00,,,0.00,WUHU216HW,2013-11-15 03:47:00,
2013-11-14 20:52:00,44.3,30.9,29.74,ESE,113,0.0,0.0,59,0.00,,,0.00,WUHU216HW,2013-11-15 03:52:00,
2013-11-14 20:57:00,44.1,30.2,29.74,ESE,113,0.0,0.0,58,0.00,,,0.00,WUHU216HW,2013-11-15 03:57:00,
2013-11-14 21:02:00,43.7,30.8,29.74,ESE,113,0.0,0.0,60,0.00,,,0.00,WUHU216HW,2013-11-15 04:02:00,
2013-11-14 21:07:00,43.7,30.3,29.74,ENE,68,1.0,1.0,59,0.00,,,0.00,WUHU216HW,2013-11-15 04:07:00,
2013-11-14 21:12:00,43.7,30.8,29.74,East,90,1.0,1.0,60,0.00,,,0.00,WUHU216HW,2013-11-15 04:12:00,
2013-11-14 21:17:00,43.6,30.6,29.74,East,90,1.0,3.0,60,0.00,,,0.00,WUHU216HW,2013-11-15 04:17:00,
2013-11-14 21:22:00,43.6,31.0,29.73,ENE,68,3.0,3.0,61,0.00,,,0.00,WUHU216HW,2013-11-15 04:22:00,
2013-11-14 21:27:00,43.9,31.3,29.73,ENE,68,3.0,5.0,61,0.00,,,0.00,WUHU216HW,2013-11-15 04:27:00,
2013-11-14 21:32:00,44.1,31.1,29.73,ESE,113,3.0,5.0,60,0.00,,,0.00,WUHU216HW,2013-11-15 04:32:00,
2013-11-14 21:37:00,44.1,31.1,29.72,ENE,68,2.0,3.0,60,0.00,,,0.00,WUHU216HW,2013-11-15 04:37:00,
2013-11-14 21:42:00,44.1,30.7,29.72,ENE,68,3.0,3.0,59,0.00,,,0.00,WUHU216HW,2013-11-15 04:42:00,
2013-11-14 21:47:00,44.1,30.2,29.72,East,90,1.0,3.0,58,0.00,,,0.00,WUHU216HW,2013-11-15 04:47:00,
2013-11-14 21:52:00,43.9,30.1,29.72,ENE,68,0.0,3.0,58,0.00,,,0.00,WUHU216HW,2013-11-15 04:52:00,
2013-11-14 21:57:00,43.9,29.6,29.71,NNE,23,0.0,2.0,57,0.00,,,0.00,WUHU216HW,2013-11-15 04:57:00,
2013-11-14 22:01:00,43.6,29.3,29.71,NW,315,0.0,1.0,57,0.00,,,0.00,WUHU216HW,2013-11-15 05:01:00,
2013-11-14 22:06:00,43.2,28.9,29.71,SW,225,0.0,1.0,57,0.00,,,0.00,WUHU216HW,2013-11-15 05:06:00,
2013-11-14 22:11:00,42.8,28.6,29.72,West,270,1.0,1.0,57,0.00,,,0.00,WUHU216HW,2013-11-15 05:11:00,
2013-11-14 22:16:00,42.7,28.9,29.71,WNW,293,1.0,1.0,58,0.00,,,0.00,WUHU216HW,2013-11-15 05:16:00,
2013-11-14 22:21:00,42.5,28.7,29.71,West,270,0.0,1.0,58,0.00,,,0.00,WUHU216HW,2013-11-15 05:21:00,
2013-11-14 22:26:00,42.3,29.0,29.71,WNW,293,0.0,1.0,59,0.00,,,0.00,WUHU216HW,2013-11-15 05:26:00,
2013-11-14 22:31:00,42.3,29.0,29.71,NW,315,0.0,1.0,59,0.00,,,0.00,WUHU216HW,2013-11-15 05:31:00,
2013-11-14 22:36:00,41.9,29.1,29.72,SSW,203,0.0,0.0,60,0.00,,,0.00,WUHU216HW,2013-11-15 05:36:00,
2013-11-14 22:41:00,41.6,28.3,29.72,South,180,0.0,0.0,59,0.00,,,0.00,WUHU216HW,2013-11-15 05:41:00,
2013-11-14 22:46:00,41.4,28.2,29.72,South,180,0.0,1.0,59,0.00,,,0.00,WUHU216HW,2013-11-15 05:46:00,
2013-11-14 22:51:00,41.0,28.3,29.72,SSE,158,0.0,1.0,60,0.00,,,0.00,WUHU216HW,2013-11-15 05:51:00,
2013-11-14 22:56:00,40.7,28.3,29.71,ESE,113,0.0,0.0,61,0.00,,,0.00,WUHU216HW,2013-11-15 05:56:00,
2013-11-14 23:01:00,40.7,28.3,29.71,ESE,113,0.0,1.0,61,0.00,,,0.00,WUHU216HW,2013-11-15 06:01:00,
2013-11-14 23:06:00,40.3,27.9,29.71,ENE,68,1.0,1.0,61,0.00,,,0.00,WUHU216HW,2013-11-15 06:06:00,
2013-11-14 23:11:00,40.1,28.5,29.71,East,90,1.0,1.0,63,0.00,,,0.00,WUHU216HW,2013-11-15 06:11:00,
2013-11-14 23:16:00,40.0,27.9,29.71,NE,45,1.0,1.0,62,0.00,,,0.00,WUHU216HW,2013-11-15 06:16:00,
2013-11-14 23:21:00,40.0,28.4,29.71,ENE,68,0.0,1.0,63,0.00,,,0.00,WUHU216HW,2013-11-15 06:21:00,
2013-11-14 23:26:00,40.0,28.4,29.71,East,90,0.0,1.0,63,0.00,,,0.00,WUHU216HW,2013-11-15 06:26:00,
2013-11-14 23:31:00,40.0,28.4,29.71,East,90,0.0,1.0,63,0.00,,,0.00,WUHU216HW,2013-11-15 06:31:00,
2013-11-14 23:36:00,39.6,28.0,29.71,East,90,0.0,0.0,63,0.00,,,0.00,WUHU216HW,2013-11-15 06:36:00,
2013-11-14 23:41:00,39.2,27.6,29.71,SSE,158,0.0,1.0,63,0.00,,,0.00,WUHU216HW,2013-11-15 06:41:00,
2013-11-14 23:46:00,39.2,27.6,29.70,East,90,0.0,1.0,63,0.00,,,0.00,WUHU216HW,2013-11-15 06:46:00,
2013-11-14 23:51:00,38.9,27.3,29.71,East,90,0.0,1.0,63,0.00,,,0.00,WUHU216HW,2013-11-15 06:51:00,
2013-11-14 23:56:00,38.9,27.3,29.70,ENE,68,0.0,1.0,63,0.00,,,0.00,WUHU216HW,2013-11-15 06:56:00,